Regional Weather Roundup
Issued by NWS

Home | Current Version | Previous Version | Graphics & Text | Print | Product List | Glossary On
Versions: 1 2 3 4 5 6 7 8 9 10 11 12 13 14 15 16 17 18 19 20 21 22 23 24 25 26 27 28 29 30 31 32 33 34 35 36 37 38 39 40 41 42 43 44 45 46 47 48 49 50
000
ASUS43 KBIS 231310
RWRND

NORTH DAKOTA REGIONAL WEATHER ROUNDUP
NATIONAL WEATHER SERVICE BISMARCK ND
800 AM CDT SUN JUL 23 2017

NOTE: "FAIR" INDICATES FEW OR NO CLOUDS BELOW 12,000 FEET WITH NO
SIGNIFICANT WEATHER AND/OR OBSTRUCTIONS TO VISIBILITY.


NDZ001>003-009>011-017-231400-
NORTHWEST NORTH DAKOTA

CITY           SKY/WX    TMP DP  RH WIND       PRES   REMARKS
WILLISTON      SUNNY     64  54  69 CALM      30.07S
MINOT          SUNNY     61  54  77 W6        30.06S
MINOT AFB      SUNNY     58  56  91 W5        30.05S
$$

NDZ018>021-031>035-040>046-231400-
SOUTHWEST NORTH DAKOTA

CITY           SKY/WX    TMP DP  RH WIND       PRES   REMARKS
BISMARCK       SUNNY     62  55  77 W6        30.08R
DICKINSON      SUNNY     60  54  80 CALM      30.08S
GARRISON         N/A     56  53  90 CALM      30.07R
HETTINGER ARPT SUNNY     59  52  77 CALM      30.12R
$$

NDZ004>008-012>016-024-026-027-054-231400-
NORTHEAST NORTH DAKOTA

CITY           SKY/WX    TMP DP  RH WIND       PRES   REMARKS
GRAND FORKS    CLOUDY    63  60  90 N13       29.98R
GRND FRKS AFB  PTSUNNY   63  59  88 N8        29.99R
DEVILS LAKE    SUNNY     60  58  92 NW8       30.04S
$$

NDZ022-023-025-028>030-036>039-047>053-231400-
SOUTHEAST NORTH DAKOTA

CITY           SKY/WX    TMP DP  RH WIND       PRES   REMARKS
FARGO          CLOUDY    63  61  93 N8        29.97R
JAMESTOWN      SUNNY     63  59  87 NW9       30.03R
$$





USA.gov is the U.S. government's official web portal to all federal, state and local government web resources and services.